Simultaneous Nadir Overpasses (SNOs) Predictions

Prediction of SNOs between GOES-15 and TERRA Satellite Orbit:

Table of predicted SNOs for the next 14.0 days since TLE Epoch: 6/17/2023
Index Date Time (GOES-15) GOES-15 Lat,Lon TERRA Lat,Lon Distance(km) Time Diff (sec)
1 06/18/2023 20:40:54 -0.22,-162.64 -0.91,-159.31 377.53 80
2 06/19/2023 09:03:55 0.19,-162.83 -0.11,-164.26 162.59 80
3 06/21/2023 08:44:57 0.21,-163.61 0.90,-160.35 370.67 80
4 06/21/2023 21:07:48 -0.18,-163.82 0.12,-165.26 162.65 80
5 06/23/2023 20:48:50 -0.21,-164.60 -0.91,-161.35 370.33 80
6 06/24/2023 09:11:49 0.17,-164.79 -0.15,-166.29 169.79 80
7 06/26/2023 08:52:51 0.20,-165.57 0.90,-162.38 362.80 80
8 06/26/2023 21:15:41 -0.16,-165.78 0.17,-167.27 170.85 80
9 06/28/2023 20:56:42 -0.18,-166.54 -0.83,-163.36 360.99 80
10 06/29/2023 09:19:42 0.15,-166.73 -0.20,-168.30 179.31 80
